Torna al catalogo

STARLINK-31596

AttivoComunicazioniVLEO
NORAD 59336·PAYLOAD·🇺🇸 United States

Lanciato Mar 25, 2024 da Cape Canaveral Space Force Station

Loading…

Prossimi Passaggi (prossime 24 ore)

TLE

AggiornatoSource: CelesTrak SupGP

Epoca: Sep 15, 2026, 01:53 UTC

1 59336C 24057S   26258.07895833 -.00091827  00000+0 -33251-2 0  2582
2 59336  42.9995 197.2161 0001240 262.6843 218.8170 15.27632592    11

Traccia STARLINK-31596 in tempo reale con AllMySat

Download on the App Store